TimeEST,TemperatureF,Dew PointF,Humidity,Sea Level PressureIn,VisibilityMPH,Wind Direction,Wind SpeedMPH,Gust SpeedMPH,PrecipitationIn,Events,Conditions,WindDirDegrees,DateUTC
12:53 AM,44.1,37.9,79,30.07,10.0,Calm,Calm,-,N/A,,Clear,0,2012-11-05 05:53:00
1:53 AM,42.1,37.0,82,30.08,10.0,NNW,3.5,-,N/A,,Clear,330,2012-11-05 06:53:00
2:53 AM,39.9,37.0,89,30.07,10.0,NW,3.5,-,N/A,,Clear,310,2012-11-05 07:53:00
3:53 AM,39.9,37.0,89,30.07,10.0,NW,3.5,-,N/A,,Clear,320,2012-11-05 08:53:00
4:53 AM,37.0,35.1,93,30.08,10.0,Calm,Calm,-,N/A,,Clear,0,2012-11-05 09:53:00
5:53 AM,36.0,35.1,97,30.10,10.0,Calm,Calm,-,N/A,,Clear,0,2012-11-05 10:53:00
6:53 AM,37.9,36.0,93,30.10,10.0,Calm,Calm,-,N/A,,Clear,0,2012-11-05 11:53:00
7:53 AM,37.0,35.1,93,30.10,10.0,Calm,Calm,-,N/A,,Clear,0,2012-11-05 12:53:00
8:53 AM,48.0,37.9,68,30.10,10.0,North,3.5,-,N/A,,Partly Cloudy,10,2012-11-05 13:53:00
9:53 AM,51.1,39.9,66,30.10,10.0,Calm,Calm,-,N/A,,Clear,0,2012-11-05 14:53:00
10:53 AM,55.9,37.0,49,30.09,10.0,Calm,Calm,-,N/A,,Clear,0,2012-11-05 15:53:00
11:53 AM,57.9,30.0,35,30.06,10.0,NNE,9.2,-,N/A,,Clear,30,2012-11-05 16:53:00
12:53 PM,60.1,30.9,33,30.03,10.0,NE,6.9,-,N/A,,Clear,50,2012-11-05 17:53:00
1:53 PM,63.0,32.0,31,30.00,10.0,East,8.1,-,N/A,,Clear,90,2012-11-05 18:53:00
2:53 PM,63.0,32.0,31,29.98,10.0,East,3.5,-,N/A,,Clear,100,2012-11-05 19:53:00
3:53 PM,62.1,33.1,34,29.96,10.0,NNE,3.5,-,N/A,,Clear,20,2012-11-05 20:53:00
4:53 PM,59.0,33.1,38,29.97,10.0,NNW,4.6,-,N/A,,Clear,340,2012-11-05 21:53:00
5:53 PM,54.0,37.0,53,29.98,10.0,Calm,Calm,-,N/A,,Clear,0,2012-11-05 22:53:00
6:53 PM,54.0,37.0,53,29.98,10.0,NNW,3.5,-,N/A,,Clear,340,2012-11-05 23:53:00
7:53 PM,53.1,37.9,57,29.98,10.0,North,4.6,-,N/A,,Mostly Cloudy,10,2012-11-06 00:53:00
8:53 PM,53.1,37.9,57,29.99,10.0,Calm,Calm,-,N/A,,Overcast,0,2012-11-06 01:53:00
9:53 PM,52.0,39.9,63,29.99,10.0,Calm,Calm,-,N/A,,Overcast,0,2012-11-06 02:53:00
10:53 PM,52.0,39.9,63,29.96,10.0,North,3.5,-,0.00,Rain,Light Rain,360,2012-11-06 03:53:00
11:53 PM,48.9,45.0,86,29.94,10.0,North,4.6,-,0.00,Rain,Light Rain,360,2012-11-06 04:53:00